Location: La Trinit�
(48.1620°N, 3.4512°W)
Time: 17:33:57
(UTC+00:00)

Cosmos 1340 Rocket - Pass Details

Date: 08 May 2021
Orbit: 527 x 559 km, 81.2° (Epoch: 21 June)

Event Time Altitude Azimuth Distance (km) Brightness Sun altitude
Rises 22:44:20 0° 350° (N) 2,759 7.8 -21.7°
Reaches altitude 10° 22:46:32 10° 352° (N) 1,859 6.6 -21.9°
Maximum altitude 22:50:38 72° 77° (ENE) 594 2.8 -22.1°
Enters shadow 22:50:48 71° 98° (E) 598 2.8 -22.1°
